[[{"header":{"parameterUnit":"m.s-1","parameterCategory":1,"la1":30.2991,"la2":30.254,"lo1":-89.0895,"lo2":-89.0444,"dx":0.0017,"dy":0.0017,"nx":28,"ny":28,"refTime":"2022-12-16T09:00:00:Z","depth":0,"parameterNumber":2,"parameterNumberName":"U-component_of_WINDS"},"data":[0,0,0,0,0,0,0,0,0,0,0,0,0,0,0,0,0,0,0,0,0,0,0,0,0,0,0,0,0,0,0,0,0,0,0,0,0,0,0,0,0,0,0,0,0,0,0,0,0,0,0,0,0,0,0,0,0,0,1.0614,1.0614,0,1.0563,1.0562,1.0562,1.0544,1.0544,1.0544,1.0545,1.0489,1.0487,1.0485,0,0,0,0,0,0,0,0,0,0,0,0,0,1.0693,1.0692,1.0614,1.0614,1.0613,1.0563,1.0562,1.0562,1.0544,1.0544,1.0544,1.0545,1.0489,1.0487,1.0485,0,0,0,0,0,0,0,0,0,0,0,0,0,1.0652,1.0691,1.0614,1.0598,1.0596,1.0563,1.0562,1.0561,1.0544,1.0544,1.0545,1.0545,1.049,1.0487,1.0485,1.0463,0,0,1.0477,1.0476,0,0,0,0,0,0,0,0,1.0654,1.0649,1.0601,1.0599,1.0597,1.056,1.057,1.0528,1.0544,1.0564,1.0545,1.0545,1.0512,1.0508,1.0497,1.046,1.0458,1.0477,1.0475,1.0474,1.0474,0,0,0,0,0,0,0,1.0657,1.0651,1.0594,1.0601,1.0598,1.0592,1.0587,1.0562,1.0537,1.0562,1.0561,1.0555,1.0511,1.05,1.0496,1.0457,1.0477,1.0475,1.0473,1.0472,1.0399,1.0399,0,0,0,0,0,0,1.0663,1.0654,1.0595,1.0592,1.0627,1.0591,1.0585,1.0572,1.0537,1.0532,1.0555,1.0554,1.0504,1.0499,1.0494,1.0465,1.0474,1.0472,1.047,1.04,1.0399,1.0399,0,0,0,0,0,0,1.0665,1.0658,1.0598,1.0623,1.0615,1.0589,1.0575,1.0571,1.0559,1.0531,1.0526,1.0548,1.0504,1.0497,1.0471,1.0463,1.0471,1.0468,1.04,1.0399,1.0399,1.0409,0,0,0,0,0,0,1.0668,1.0659,1.0651,1.0623,1.0613,1.0577,1.0574,1.0569,1.0556,1.0554,1.0524,1.0519,1.0504,1.0475,1.0468,1.046,1.0467,1.0401,1.04,1.0399,1.0409,1.0409,1.0408,0,0,0,0,0,1.067,1.0656,1.0651,1.0644,1.0603,1.0576,1.0571,1.0554,1.0555,1.0546,1.0528,1.052,1.0465,1.0472,1.0465,1.0455,1.0401,1.04,1.0399,1.0409,1.0409,1.0408,0,0,0,0,0,0,1.0683,1.0651,1.0646,1.0622,1.0602,1.0573,1.0562,1.0554,1.0533,1.0533,1.0512,1.0505,1.048,1.0465,1.0473,1.0432,1.0433,1.043,1.0443,1.0442,1.0442,1.0445,1.0464,0,0,0,0,0,1.0683,1.0665,1.0638,1.0619,1.0609,1.0588,1.0575,1.0564,1.0542,1.0533,1.0513,1.0492,1.0469,1.0455,1.0433,1.0407,1.0399,1.0397,1.0396,1.0396,1.0394,1.0378,1.0377,1.0395,1.0395,1.0395,0,0,1.0682,1.0663,1.0653,1.0621,1.0604,1.0585,1.058,1.056,1.0545,1.053,1.0504,1.0489,1.0463,1.0436,1.0424,1.0423,1.0387,1.0395,1.0395,1.0393,1.0377,1.0375,1.0374,1.0395,1.0395,1.0395,0,0,1.0672,1.0656,1.0638,1.0622,1.0597,1.0582,1.0578,1.0551,1.054,1.0514,1.0502,1.0484,1.0446,1.0428,1.0414,1.0396,1.0387,1.039,1.0387,1.0372,1.0371,1.0369,1.0362,1.036,1.0388,1.0388,1.0388,0,1.0674,1.0645,1.0629,1.061,1.0596,1.0583,1.0564,1.0548,1.0517,1.0507,1.0507,1.046,1.0441,1.041,1.0406,1.0395,1.0389,1.0393,1.0372,1.0371,1.0369,1.0362,1.0359,1.0388,1.0388,1.0388,1.0388,0,1.0649,1.0629,1.0617,1.0589,1.0573,1.0554,1.0535,1.0521,1.0511,1.0497,1.047,1.0447,1.042,1.0412,1.0403,1.038,1.038,1.0377,1.0376,1.0368,1.0361,1.0358,1.0389,1.0388,1.0388,1.0388,0,0,1.0643,1.0607,1.0603,1.0589,1.0561,1.0545,1.0525,1.05,1.0488,1.0467,1.0449,1.0417,1.0414,1.0398,1.0386,1.0373,1.036,1.0371,1.037,1.0369,1.0332,1.0334,1.0331,1.0354,1.0354,1.0353,1.0334,0,1.0628,1.0593,1.0578,1.0549,1.053,1.0517,1.0499,1.048,1.0465,1.0446,1.043,1.0408,1.0406,1.0396,1.0383,1.0364,1.0352,1.0366,1.0336,1.0335,1.0342,1.0328,1.033,1.0313,1.0331,1.0331,1.033,0,1.0605,1.0585,1.0555,1.0529,1.052,1.0505,1.048,1.0462,1.0439,1.043,1.0412,1.0401,1.0378,1.0381,1.0348,1.0358,1.0345,1.0334,1.0333,1.0328,1.0331,1.0322,1.0307,1.0304,1.0326,1.0326,1.0327,0,1.0603,1.0569,1.0546,1.0535,1.0504,1.0493,1.048,1.0457,1.0443,1.0421,1.0412,1.0387,1.0374,1.0355,1.0337,1.034,1.0306,1.0307,1.0296,1.0296,1.0288,1.0289,1.027,1.0282,1.0282,1.0282,1.0282,0,1.0587,1.0569,1.0545,1.053,1.0509,1.0492,1.0471,1.0456,1.0436,1.0418,1.0406,1.0388,1.0366,1.0346,1.0332,1.0307,1.0301,1.0292,1.0288,1.0292,1.0293,1.0282,1.0283,1.0281,1.0281,1.0281,1.0282,0,1.0581,1.0564,1.0538,1.0512,1.0505,1.049,1.0466,1.0452,1.0437,1.0414,1.0408,1.0385,1.036,1.0341,1.0309,1.0299,1.0272,1.0269,1.028,1.0278,1.0268,1.0269,1.0241,1.0236,1.0252,1.0252,1.0252,0,1.0571,1.0557,1.0529,1.0517,1.0504,1.0484,1.0469,1.0452,1.0437,1.041,1.0398,1.0373,1.0352,1.0314,1.0293,1.0268,1.0263,1.0255,1.0259,1.0264,1.0262,1.0262,1.026,1.0254,1.0254,1.0254,1.0254,0,1.0556,1.0548,1.0529,1.0506,1.0489,1.047,1.0451,1.0441,1.042,1.0404,1.038,1.0364,1.0331,1.0306,1.028,1.0264,1.0255,1.0253,1.0249,1.0253,1.026,1.0255,1.0278,1.0253,1.0253,1.0253,1.0254,1.0254,1.0547,1.0533,1.0511,1.049,1.0474,1.0456,1.0441,1.0425,1.0404,1.0377,1.0368,1.0343,1.0319,1.0283,1.0267,1.0246,1.0246,1.024,1.0238,1.0237,1.0237,1.0264,1.0242,1.0242,1.0242,1.0242,1.0242,0,1.0529,1.0515,1.0495,1.0469,1.0452,1.0447,1.0425,1.041,1.0389,1.0368,1.0348,1.032,1.0295,1.0273,1.0248,1.0235,1.023,1.0229,1.0229,1.0225,1.024,1.0245,1.0233,1.0233,1.0233,1.0233,1.0233,1.0233,1.0518,1.0495,1.0485,1.0453,1.0438,1.0414,1.0402,1.0385,1.0369,1.0338,1.0318,1.0304,1.0283,1.0256,1.0233,1.0227,1.0217,1.0217,1.021,1.0223,1.0224,1.0225,1.023,1.0215,1.0215,1.0197,1.0197,1.0196]},{"header":{"parameterUnit":"m.s-1","parameterCategory":1,"la1":30.2991,"la2":30.254,"lo1":-89.0895,"lo2":-89.0444,"dx":0.0017,"dy":0.0017,"nx":28,"ny":28,"refTime":"2022-12-16T09:00:00:Z","depth":0,"parameterNumber":3,"parameterNumberName":"V-component_of_WINDS"},"data":[0,0,0,0,0,0,0,0,0,0,0,0,0,0,0,0,0,0,0,0,0,0,0,0,0,0,0,0,0,0,0,0,0,0,0,0,0,0,0,0,0,0,0,0,0,0,0,0,0,0,0,0,0,0,0,0,0,0,-3.644,-3.6441,0,-3.655,-3.6551,-3.6553,-3.6518,-3.6516,-3.6513,-3.6511,-3.6622,-3.6627,-3.6632,0,0,0,0,0,0,0,0,0,0,0,0,0,-3.6196,-3.6201,-3.644,-3.6441,-3.6442,-3.655,-3.6551,-3.6553,-3.6518,-3.6515,-3.6513,-3.651,-3.662,-3.6626,-3.6632,0,0,0,0,0,0,0,0,0,0,0,0,0,-3.6304,-3.6203,-3.6439,-3.6438,-3.6439,-3.655,-3.6551,-3.6553,-3.6519,-3.6515,-3.6512,-3.6509,-3.6618,-3.6626,-3.6633,-3.6751,0,0,-3.6657,-3.666,0,0,0,0,0,0,0,0,-3.6298,-3.6313,-3.6437,-3.6438,-3.644,-3.6517,-3.6506,-3.662,-3.652,-3.6489,-3.6511,-3.6507,-3.659,-3.6599,-3.6628,-3.6756,-3.6761,-3.6658,-3.6662,-3.6665,-3.6668,0,0,0,0,0,0,0,-3.6291,-3.6308,-3.6483,-3.6439,-3.6441,-3.6431,-3.6443,-3.6528,-3.6557,-3.6491,-3.6489,-3.6502,-3.659,-3.662,-3.663,-3.6763,-3.6657,-3.6664,-3.6669,-3.6672,-3.6992,-3.6996,0,0,0,0,0,0,-3.6282,-3.6302,-3.648,-3.6487,-3.6359,-3.6438,-3.6451,-3.6495,-3.6556,-3.6562,-3.6505,-3.65,-3.6609,-3.6621,-3.6634,-3.6775,-3.6665,-3.6673,-3.6677,-3.6988,-3.6993,-3.6997,0,0,0,0,0,0,-3.6277,-3.6299,-3.6475,-3.6394,-3.6416,-3.6446,-3.6496,-3.65,-3.653,-3.6567,-3.6572,-3.6531,-3.6607,-3.6623,-3.6722,-3.6778,-3.6676,-3.6683,-3.6984,-3.699,-3.6995,-3.7059,0,0,0,0,0,0,-3.6271,-3.6297,-3.6343,-3.6395,-3.642,-3.6563,-3.65,-3.6504,-3.6544,-3.6539,-3.6593,-3.6599,-3.6605,-3.6711,-3.673,-3.6787,-3.6689,-3.6979,-3.6986,-3.6993,-3.7052,-3.7066,-3.7079,0,0,0,0,0,-3.6262,-3.6356,-3.6345,-3.6367,-3.6478,-3.6566,-3.658,-3.6587,-3.6549,-3.6594,-3.6618,-3.6597,-3.6769,-3.6721,-3.6742,-3.6803,-3.6975,-3.6984,-3.6993,-3.7046,-3.7063,-3.7078,0,0,0,0,0,0,-3.6309,-3.6363,-3.6352,-3.6466,-3.6512,-3.656,-3.6618,-3.6605,-3.6662,-3.6655,-3.6659,-3.6672,-3.6773,-3.6798,-3.6743,-3.6919,-3.6866,-3.688,-3.69,-3.6917,-3.693,-3.6922,-3.6696,0,0,0,0,0,-3.6333,-3.6401,-3.6444,-3.654,-3.6564,-3.6587,-3.6626,-3.6627,-3.6674,-3.6693,-3.6724,-3.677,-3.6835,-3.6877,-3.6938,-3.7055,-3.7066,-3.7107,-3.712,-3.7131,-3.7143,-3.7205,-3.7224,-3.7026,-3.7026,-3.7025,0,0,-3.6383,-3.6421,-3.6463,-3.6551,-3.6586,-3.6656,-3.6604,-3.6679,-3.673,-3.6704,-3.68,-3.6824,-3.6876,-3.6984,-3.7033,-3.7008,-3.72,-3.7142,-3.7151,-3.7156,-3.7216,-3.7235,-3.7252,-3.7032,-3.7031,-3.703,0,0,-3.6509,-3.6545,-3.6629,-3.6665,-3.672,-3.6735,-3.6755,-3.6805,-3.6821,-3.6917,-3.6898,-3.6959,-3.707,-3.7107,-3.7141,-3.728,-3.7263,-3.73,-3.7369,-3.743,-3.7446,-3.746,-3.7509,-3.7527,-3.7311,-3.7311,-3.7311,0,-3.6564,-3.6668,-3.6673,-3.675,-3.6789,-3.6769,-3.6854,-3.6889,-3.6961,-3.6987,-3.6958,-3.7096,-3.713,-3.7246,-3.728,-3.7308,-3.7331,-3.7294,-3.7443,-3.7457,-3.747,-3.7517,-3.7536,-3.7315,-3.7315,-3.7315,-3.7314,0,-3.6732,-3.6805,-3.6866,-3.6936,-3.6982,-3.7062,-3.7079,-3.7124,-3.7121,-3.7138,-3.7235,-3.7275,-3.7344,-3.7371,-3.7369,-3.7487,-3.747,-3.7442,-3.7389,-3.7493,-3.7538,-3.7556,-3.7321,-3.732,-3.7319,-3.7318,0,0,-3.6892,-3.6963,-3.6986,-3.7017,-3.7076,-3.7131,-3.721,-3.7278,-3.7317,-3.7367,-3.7432,-3.7527,-3.7501,-3.7539,-3.754,-3.7594,-3.7701,-3.756,-3.7561,-3.7584,-3.7834,-3.7854,-3.7875,-3.769,-3.7693,-3.7696,-3.7829,0,-3.7022,-3.7162,-3.7168,-3.7295,-3.7362,-3.7343,-3.7412,-3.7455,-3.7473,-3.7531,-3.7551,-3.7618,-3.7579,-3.7602,-3.7654,-3.7677,-3.7751,-3.7668,-3.7751,-3.7753,-3.7738,-3.7898,-3.792,-3.8044,-3.7846,-3.7849,-3.7852,0,-3.7193,-3.7249,-3.7383,-3.7431,-3.7459,-3.7521,-3.7583,-3.764,-3.7687,-3.7697,-3.7739,-3.7732,-3.7812,-3.7756,-3.7866,-3.7809,-3.7843,-3.7859,-3.7864,-3.7872,-3.7809,-3.791,-3.8084,-3.8102,-3.7879,-3.7877,-3.7875,0,-3.7296,-3.7404,-3.7498,-3.7525,-3.7584,-3.7628,-3.7654,-3.7699,-3.7739,-3.7793,-3.7818,-3.7881,-3.7915,-3.7963,-3.7973,-3.7931,-3.8083,-3.8027,-3.8092,-3.8092,-3.8125,-3.8123,-3.8306,-3.8147,-3.8147,-3.8146,-3.8146,0,-3.7441,-3.7523,-3.7544,-3.7602,-3.7693,-3.77,-3.779,-3.7813,-3.7852,-3.7914,-3.7901,-3.7958,-3.7968,-3.8028,-3.8036,-3.8125,-3.814,-3.815,-3.8151,-3.8151,-3.815,-3.8173,-3.8165,-3.8151,-3.815,-3.8149,-3.8148,0,-3.7571,-3.7588,-3.7689,-3.7737,-3.775,-3.7816,-3.7856,-3.7911,-3.7927,-3.8005,-3.8023,-3.8049,-3.8118,-3.8133,-3.8215,-3.822,-3.8326,-3.8319,-3.831,-3.831,-3.8373,-3.8367,-3.8578,-3.8606,-3.8429,-3.843,-3.8432,0,-3.7662,-3.7725,-3.7779,-3.782,-3.7848,-3.7913,-3.7954,-3.7962,-3.8005,-3.8064,-3.8112,-3.8179,-3.8234,-3.8346,-3.8371,-3.8433,-3.8427,-3.8497,-3.8437,-3.8435,-3.8428,-3.8424,-3.8431,-3.8509,-3.8511,-3.8512,-3.8513,0,-3.7822,-3.7828,-3.7887,-3.795,-3.8,-3.8049,-3.8096,-3.813,-3.8144,-3.8193,-3.8264,-3.8306,-3.839,-3.8457,-3.852,-3.8546,-3.8532,-3.8532,-3.855,-3.8551,-3.8544,-3.8548,-3.8342,-3.8527,-3.8526,-3.8525,-3.8524,-3.8524,-3.7936,-3.7991,-3.8037,-3.8104,-3.814,-3.8185,-3.8238,-3.8262,-3.8321,-3.839,-3.8391,-3.8469,-3.8514,-3.8596,-3.8626,-3.8686,-3.8664,-3.869,-3.8697,-3.8704,-3.8709,-3.8534,-3.8697,-3.8697,-3.8696,-3.8696,-3.8696,0,-3.8095,-3.8124,-3.8185,-3.8252,-3.8304,-3.8287,-3.8338,-3.8383,-3.8451,-3.8495,-3.8549,-3.863,-3.8695,-3.8726,-3.879,-3.8832,-3.8827,-3.8848,-3.8845,-3.8852,-3.8725,-3.8703,-3.8851,-3.8851,-3.8851,-3.8851,-3.8851,-3.8851,-3.8184,-3.8276,-3.8287,-3.8396,-3.8424,-3.8501,-3.8531,-3.8572,-3.8606,-3.8698,-3.8752,-3.8772,-3.881,-3.8876,-3.8935,-3.8942,-3.8966,-3.8991,-3.8995,-3.8876,-3.8861,-3.8846,-3.8825,-3.8996,-3.8996,-3.9116,-3.9117,-3.9118]}]]